Location: Devarapalle
(16.2968°N, 80.8208°E)
Time: 11:38:56
(UTC+00:00)

Daily predictions for brighter satellites

Satellite Brightness Start Highest point End
(mag) Time Altitude Azimuth Time Altitude Azimuth Time Altitude Azimuth
CZ-4 R/B 4.5 13:04:53 10° SSE 13:08:59 65° ENE 13:13:06 10° N
H-2A R/B 3.9 13:13:29 10° E 13:14:28 10° ENE 13:15:27 10° ENE
Orbus 7S? 3.0 13:13:19 10° NNW 13:15:42 44° ENE 13:19:18 10° SE
ASTRO E2 3.7 13:13:18 10° SSW 13:16:48 29° SSE 13:20:18 10° E
Cosmos 1140 Rocket 3.9 13:17:21 10° SSE 13:22:09 39° E 13:26:57 10° NNE
Aureole 2 Rocket 3.3 13:19:25 10° NNE 13:22:13 26° ENE 13:24:55 10° SE
Meteor 1-16 Rocket 4.1 13:18:26 10° S 13:23:38 58° E 13:28:56 10° NNE
CZ-2D R/B 3.3 13:20:11 10° SSE 13:23:54 55° ENE 13:27:37 10° N
SeaSat 1 4.3 13:23:35 10° N 13:28:02 35° WNW 13:32:28 10° SW
Cosmos 1626 3.0 13:25:56 10° NNW 13:29:31 53° W 13:33:07 10° S
Cosmos 614 Rocket 4.1 13:25:14 10° SSW 13:30:27 85° WNW 13:35:41 10° NNE
STARLINK-1073 4.4 13:29:48 10° NNW 13:33:33 33° NE 13:36:12 17° ESE
CSL-04 Debris 4.2 13:28:22 10° SSE 13:33:47 65° ENE 13:39:11 10° N
Cosmos 1190 Rocket 4.0 13:29:56 10° S 13:35:12 68° ESE 13:40:27 10° NNE
Cosmos 1943 Rocket 2.3 13:31:28 10° N 13:36:55 55° ENE 13:42:25 10° SSE
STARLINK-1121 4.2 13:34:40 10° NNW 13:38:32 38° NE 13:40:59 19° ESE
HJ-1C 4.2 13:36:11 13° SE 13:38:41 31° ENE 13:41:41 10° NNE
YAOGAN 1 2.6 13:34:43 10° S 13:39:02 81° W 13:43:20 10° NNW
STARLINK-1106 4.0 13:39:35 10° NNW 13:43:32 44° NE 13:45:48 22° ESE
ARGOS Delta rocket 4.4 13:40:01 10° SSE 13:44:51 43° ENE 13:49:53 10° N
Centaur D AC-28 1.8 13:44:07 10° WNW 13:47:49 64° SSW 13:50:43 19° SE
STARLINK-1112 3.8 13:44:30 10° NNW 13:48:31 51° NE 13:50:35 25° ESE
GPS 2-18 Rocket1 2.9 13:45:08 10° WSW 13:48:50 84° NNW 13:50:53 25° ENE
IRIDIUM 104 4.3 13:47:59 10° N 13:53:06 56° E 13:58:11 10° SSE
Cosmos 2369 Rocket 2.2 13:47:53 10° N 13:53:25 56° ENE 13:57:56 15° SSE
STARLINK-1128 3.7 13:49:25 10° NNW 13:53:29 59° NE 13:55:22 29° ESE
CSL-04 Rocket 3.8 13:50:41 10° S 13:55:58 74° WSW 14:01:15 10° NNW
STARLINK-1113 3.5 13:54:23 10° NNW 13:58:30 69° NE 14:00:11 33° SE
Cosmos 2058 Rocket 3.2 13:54:50 10° SSE 13:59:10 50° E 14:03:31 10° NNE
SL-24 R/B 4.5 13:56:49 10° NNE 13:59:19 31° ENE 13:59:19 31° ENE
Meteor 1-21 Rocket 4.1 13:56:31 10° N 14:02:04 83° E 14:07:41 10° S
Nadezhda 1 Rocket 4.0 13:55:49 10° S 14:02:12 78° E 14:08:34 10° N
IRIDIUM 114 4.2 13:57:02 10° N 14:02:14 73° E 14:07:26 10° S
Cosmos 1726 Rocket 3.6 13:58:01 10° S 14:02:22 81° W 14:06:47 10° N
Cosmos 2184 Rocket 4.0 13:57:08 10° N 14:03:10 53° E 14:09:02 10° SSE
STARLINK-1119 3.5 13:59:18 10° NNW 14:03:25 80° NE 14:04:56 38° SE
Cosmos 2084 Rocket 4.1 13:59:17 10° NW 14:03:40 56° WSW 14:07:26 14° S
Cosmos 676 Rocket 3.9 13:59:04 10° S 14:04:21 76° ESE 14:09:37 10° NNE
Cosmos 292 Rocket 4.0 14:03:27 10° NNW 14:08:14 69° WSW 14:13:02 10° S
STARLINK-1114 3.5 14:04:15 10° NW 14:08:23 88° SW 14:09:43 42° SE
CZ-2C R/B 3.6 14:04:01 10° NNE 14:08:32 58° ESE 14:12:57 10° S
IRIDIUM 103 4.3 14:06:11 10° N 14:11:24 87° W 14:16:37 10° S
DMSP B5D2-2 4.3 14:07:08 10° NNE 14:12:08 45° E 14:17:08 10° S
ATLAS 3B CENTAUR R/B 4.1 14:06:25 10° W 14:12:25 20° SW 14:16:02 10° S
GPS 2-15 Rocket1 3.9 14:07:44 10° W 14:12:27 45° SSW 14:13:58 34° SSE
Hubble Space Telescope 3.2 14:09:58 10° NW 14:12:31 16° N 14:14:37 12° NNE
STARLINK-1130 (DARKSAT) 3.6 14:09:15 10° NW 14:13:21 77° SW 14:14:31 46° SSE
Cosmos 2228 4.3 14:10:05 10° SSW 14:14:06 42° W 14:18:10 10° NNW
Cosmos 1340 Rocket 3.0 14:11:53 10° S 14:15:56 74° W 14:19:58 10° N
Cosmos 1656 Rocket 4.1 14:11:21 10° N 14:16:28 37° ENE 14:16:32 37° ENE
Cosmos 1908 4.5 14:13:18 10° SSW 14:16:56 41° W 14:20:35 10° NNW
Cosmos 1992 Rocket 4.2 14:11:59 10° NNW 14:17:09 69° WSW 14:21:43 13° S
ARGOS 3.4 14:16:32 42° ESE 14:17:22 46° ENE 14:22:29 10° N
STARLINK-1084 3.8 14:14:14 10° NW 14:18:20 66° SW 14:19:18 48° S
Delta 128 4.4 14:17:47 10° NW 14:22:08 42° NNE 14:22:51 39° NE
Cosmos 2263 4.0 14:16:43 10° NNW 14:22:19 75° ENE 14:24:19 41° SSE
STARLINK-1098 4.1 14:19:15 10° NW 14:23:17 56° SW 14:24:05 47° SSW
SEDSat Delta rocket 4.4 14:20:18 10° NW 14:24:47 29° NNE 14:25:19 28° NNE
Ariane H10-3 3.3 14:23:30 10° SW 14:25:10 19° S 14:25:10 19° S
Cosmos 1954 Rocket 4.4 14:20:55 10° SSW 14:26:08 64° WNW 14:31:19 10° N
Cosmos 2154 Rocket 4.1 14:20:05 10° N 14:26:12 51° E 14:27:02 48° ESE
Cosmos 1825 Rocket 3.4 14:22:06 10° N 14:26:25 84° W 14:27:20 55° S
CZ-2C R/B 2.7 14:23:02 10° NNE 14:27:29 53° ENE 14:27:29 53° ENE
STARLINK-1123 4.3 14:24:16 10° NW 14:28:15 48° SW 14:28:52 44° SSW
Cosmos 1703 4.2 14:24:22 10° N 14:26:51 37° NNE 14:26:51 37° NNE
MOS 1 Rocket 3.5 14:28:06 10° NNE 14:33:31 69° E 14:34:01 65° SE
IRS-1A Rocket 4.2 14:33:45 35° S 14:36:19 84° WSW 14:42:04 10° NNW
Skynet4D Del rocket 3.8 14:33:33 10° SW 14:38:14 51° S 14:38:14 51° S
ISS -1.8 14:36:18 10° NW 14:38:15 29° WNW 14:38:15 29° WNW
Meteor 1-11 4.3 14:38:54 10° N 14:43:38 59° NNE 14:43:38 59° NNE
USA 234 3.7 14:39:27 10° NNE 14:45:51 60° NW 14:52:16 10° SW
Cosmos 1953 Rocket 4.4 14:44:58 10° N 14:48:13 46° NNW 14:48:13 46° NNW
ATLAS 2AS CENTAUR R/B 3.5 14:45:26 10° N 14:50:35 36° NE 14:50:35 36° NE
H-2A R/B 2.7 14:51:58 40° SSW 14:53:27 52° W 14:58:28 10° NNW
Ariane Rocket 4.4 15:01:53 27° SW 15:03:35 33° W 15:08:08 10° NW
CZ-2C R/B 4.1 15:07:34 38° WSW 15:07:36 38° W 15:12:05 10° NNW
ATLAS 5 CENTAUR R/B 3.0 15:04:41 10° W 15:10:06 71° N 15:13:31 51° ENE
CZ-3A R/B 3.0 14:50:48 10° WNW 15:10:56 70° SSW 15:11:03 70° SSW
ATLAS 2AS CENTAUR RB 3.9 15:27:50 10° W 15:36:34 33° WSW 15:36:34 33° WSW
SL-16 R/B 3.5 21:48:38 10° N 21:53:48 36° ENE 21:58:56 10° SE
Lacrosse 5 3.8 22:00:47 24° ESE 22:00:47 24° ESE 22:04:24 10° ENE
Cosmos 2263 Rocket 3.3 22:10:16 34° N 22:10:16 34° N 22:13:25 10° NNE
Skynet4D Del rocket 4.1 22:11:14 75° NNE 22:11:14 75° NNE 22:18:27 10° ESE
CZ-2C R/B 2.9 22:18:34 10° NNE 22:22:39 53° E 22:22:39 53° E
CZ-4B R/B 4.0 22:34:33 15° N 22:34:33 15° N 22:35:17 10° N
Meteor 1-12 Rocket 4.1 22:31:48 10° N 22:37:40 84° W 22:43:23 10° S
Cosmos 1975 Rocket 4.2 22:40:45 11° SSE 22:44:35 41° E 22:48:40 10° NNE
Cosmos 1437 Rocket 2.9 22:47:12 68° N 22:47:12 68° N 22:50:47 10° N
Cosmos 1689 Rocket 4.2 22:46:07 10° SE 22:48:44 27° ENE 22:51:20 10° NNE
Okean 1 Rocket 3.7 22:51:30 10° N 22:55:49 56° E 23:00:10 10° SSE
BREEZE-M DEB (TANK) 2.3 22:59:12 43° NNW 22:59:12 43° NNW 23:01:04 10° NNE
CZ-4B R/B 4.1 22:54:21 10° NNE 22:58:41 49° E 23:03:02 10° S
Intelsat 5-3 Rocket 3.0 23:00:35 28° NE 23:00:35 28° NE 23:01:59 10° ENE
Palapa B4 Rocket 4.2 22:56:41 34° WSW 23:00:42 76° SSE 23:06:23 10° E
PSLV R/B 3.7 23:04:51 42° WSW 23:05:39 49° SSW 23:08:13 10° SE
ADEOS 4.3 23:09:09 10° NNW 23:13:39 30° WNW 23:14:26 29° W
Meteor 2-13 Rocket 4.4 23:08:44 10° SSW 23:14:39 58° W 23:20:35 10° N
SWIFT 2.3 23:13:09 33° WNW 23:14:59 77° NNE 23:19:15 10° E
Meteor 1-31 Rocket 2.7 23:12:03 10° N 23:15:53 64° WNW 23:18:36 18° SSW
FENGYUN 3A 4.2 23:11:10 10° NNE 23:16:26 59° ESE 23:21:42 10° S
ALOS 2.8 23:13:38 10° NNE 23:18:14 60° E 23:22:49 10° S
CCE 1 Rocket 4.2 23:16:49 28° W 23:19:17 60° SSW 23:26:42 10° SE
ASTRO E2 3.8 23:21:52 25° SW 23:22:13 26° SSW 23:25:33 10° SSE
GPS 2-14 Rocket1 3.5 23:24:01 20° WNW 23:26:27 43° N 23:30:20 10° ENE
Cosmos 1844 Rocket 2.6 23:23:23 10° SSW 23:28:59 77° WNW 23:34:38 10° NNE
Cosmos 1371 Rocket 4.0 23:25:11 10° SSW 23:30:31 89° WNW 23:35:54 10° NNE
PSLV R/B 4.4 23:28:34 10° NNE 23:32:32 60° E 23:36:24 10° S
Cosmos 1624 Rocket 4.1 23:27:24 10° S 23:32:35 82° ESE 23:37:46 10° NNE
Cosmos 1818 3.7 23:28:27 10° NW 23:33:42 52° WSW 23:38:54 10° S
SL-16 R/B 3.5 23:33:57 10° WNW 23:37:31 17° WSW 23:41:06 10° SW
STARLINK-1129 3.6 23:37:30 10° SW 23:41:36 87° NW 23:45:43 10° NE
Cosmos 1536 Rocket 4.4 23:38:10 10° S 23:42:32 56° E 23:46:54 10° NNE
Lacrosse 5 3.0 23:40:03 15° WSW 23:43:05 26° NW 23:47:18 10° N
Cosmos 1766 3.1 23:41:22 10° N 23:45:12 84° W 23:49:04 10° S
Lacrosse 4 Rocket 1.8 23:41:56 10° SW 23:46:00 46° WNW 23:50:13 10° N
STARLINK-1134 3.6 23:42:29 10° SW 23:46:36 75° NW 23:50:44 10° NNE
CZ-4B DEB 4.5 23:44:10 10° NNE 23:49:40 75° ESE 23:55:12 10° S
Cosmos 1842 4.0 23:46:27 10° SSW 23:49:54 31° W 23:53:22 10° NNW
STARLINK-1135 3.6 23:47:27 10° SW 23:51:33 65° NW 23:55:39 10° NNE
EPKM 3.8 23:56:06 10° NW 23:57:16 12° NNW 23:58:19 10° NNE
